Find Starlink 38221

NORAD ID: 100248 Int'l Des: 2026-181 Owner: SPXS Country: US Constellation: starlink operational

現在のビュー

3D地球を読み込み中...

About Starlink 38221

Starlink 38221 (NORAD 100248) is a starlink constellation satellite launched Aug 8, 2026 by SPXS of US. with a mass of 575.00 kg.

次回通過

Passes for default location (London). Set your location on the main map for personalized predictions.

高度履歴

Loading altitude history...

軌道要素

1 A0248U 26181C 26262.91246363 .00121874 00000-0 80732-3 0 9990
2 A0248 97.2846 306.4111 0006146 203.3285 156.7703 15.75140701 7814
Epoch: Sep 19, 2026 • Age: 17 hours

現在のステータス

高度 347.6 km
遠地点 / 近地点 N/A
速度 7.71 km/s
衛星直下点 40.15°N, 95.11°W
打ち上げ日 Aug 8, 2026
運用期間 0.1 years
タイプ internet

技術仕様

分類 Payload
質量 575.00 kg
乾燥質量 530.00 kg
長さ 0.30 m
スパン 29.00 m
形状 ? Box + pan
製造者 SPXS
バスタイプ Starlink V2MO
フェーズステータス In Orbit
所有者/国 SPXS/US

Most Searched